contact:dominique.lefevre@mio.osupytheas.fr, maurice.libes@osupytheas.fr
Project:EMSO Ligure-ouest http://www.emso-fr.org/EMSO-France
Sensor Aquadopp, line 13 Serial AQD14315 
DOI : "https://doi.org/10.17882/74513; https://doi.org/10.17882/83244" 
Title:EMSO Ligure Ouest : Data ligne ALBATROSS capteur AQUADOPP - deploiement 2021
Id,Date,Profondeur,Latitude,Longitude,X_East,Y_North,Z_Up,Amplitude_X,Amplitude_Y,Amplitude_Z,Batterie,SoundSpeed,Heading,Pitch,Roll,Pressure,Temperature,Speed,Direction
, , m, degrees North, degrees East, m.s-1, m.s-1,m.s-1, 1, 1, 1, Volt, m.s-1, degree, degree, degree, dbar, degree_C, m.s-1, degree
11,2022-05-03T22:00:00,2200.0,42.79,6.0312,0.019,-0.007,0.016,57.0,58.0,61.0,11.9,1504.2,9.9,-0.1,-0.3,2192.895,13.16,0.02,110.2
11,2022-05-03T22:30:00,2200.0,42.79,6.0312,0.018,0.007,0.005,57.0,56.0,65.0,11.9,1504.2,11.9,0.0,0.0,2192.873,13.16,0.019,68.8
11,2022-05-03T23:00:00,2200.0,42.79,6.0312,0.012,0.009,0.011,54.0,60.0,61.0,11.9,1504.2,11.0,-0.3,0.0,2192.9,13.16,0.015,53.1
11,2022-05-03T23:30:00,2200.0,42.79,6.0312,0.013,0.015,-0.008,55.0,60.0,61.0,11.9,1504.2,14.5,-0.4,-0.3,2192.836,13.16,0.019,40.9
11,2022-05-04T00:00:00,2200.0,42.79,6.0312,0.015,0.014,0.0,57.0,59.0,60.0,11.9,1504.2,18.5,-0.5,-0.2,2192.867,13.16,0.02,47.0
11,2022-05-04T00:30:00,2200.0,42.79,6.0312,0.02,0.007,0.015,55.0,58.0,59.0,11.9,1504.2,17.0,-0.1,-0.1,2192.79,13.16,0.021,70.7
11,2022-05-04T01:00:00,2200.0,42.79,6.0312,0.01,0.015,-0.01,56.0,60.0,61.0,11.9,1504.2,17.2,-0.4,-0.3,2192.806,13.16,0.018,33.7
11,2022-05-04T01:30:00,2200.0,42.79,6.0312,0.015,0.003,0.021,55.0,61.0,60.0,11.9,1504.2,20.7,-0.1,-0.2,2192.793,13.16,0.015,78.7
11,2022-05-04T02:00:00,2200.0,42.79,6.0312,0.025,0.02,0.014,57.0,59.0,58.0,11.9,1504.2,22.5,-0.3,0.1,2192.816,13.16,0.032,51.3
11,2022-05-04T02:30:00,2200.0,42.79,6.0312,0.024,0.019,0.006,56.0,58.0,57.0,11.9,1504.2,22.2,-0.2,-0.1,2192.786,13.16,0.03,51.6
11,2022-05-04T03:00:00,2200.0,42.79,6.0312,0.023,0.001,0.009,54.0,60.0,59.0,11.9,1504.2,25.3,0.0,-0.2,2192.762,13.16,0.023,87.5
11,2022-05-04T03:30:00,2200.0,42.79,6.0312,0.021,0.016,0.017,55.0,62.0,60.0,11.9,1504.2,27.5,0.0,0.0,2192.751,13.16,0.026,52.7
11,2022-05-04T04:00:00,2200.0,42.79,6.0312,0.024,0.014,0.0,57.0,63.0,62.0,11.9,1504.2,29.2,-0.5,0.1,2192.796,13.16,0.027,59.7
11,2022-05-04T04:30:00,2200.0,42.79,6.0312,0.031,0.007,0.01,59.0,58.0,59.0,11.9,1504.2,28.9,-0.3,0.0,2192.738,13.16,0.031,77.3
11,2022-05-04T05:00:00,2200.0,42.79,6.0312,0.013,0.018,0.005,53.0,54.0,58.0,11.9,1504.2,27.7,-0.3,0.0,2192.76,13.16,0.022,35.8
11,2022-05-04T05:30:00,2200.0,42.79,6.0312,0.025,0.006,0.004,56.0,58.0,59.0,11.9,1504.2,27.7,-0.3,0.1,2192.748,13.16,0.025,76.5
11,2022-05-04T06:00:00,2200.0,42.79,6.0312,0.024,0.007,0.02,55.0,56.0,60.0,11.9,1504.2,29.0,0.0,-0.3,2192.729,13.16,0.025,73.7
11,2022-05-04T06:30:00,2200.0,42.79,6.0312,0.029,0.012,0.019,59.0,59.0,60.0,11.9,1504.2,29.4,-0.2,-0.3,2192.807,13.16,0.031,67.5
11,2022-05-04T07:00:00,2200.0,42.79,6.0312,0.026,0.021,0.016,55.0,59.0,57.0,11.9,1504.2,29.6,-0.1,0.0,2192.793,13.16,0.033,51.1
11,2022-05-04T07:30:00,2200.0,42.79,6.0312,0.021,0.008,-0.002,54.0,58.0,58.0,11.9,1504.2,22.7,-0.4,0.1,2192.814,13.16,0.022,69.1
11,2022-05-04T08:00:00,2200.0,42.79,6.0312,0.021,0.003,0.002,57.0,56.0,61.0,11.9,1504.2,23.6,-0.4,0.1,2192.837,13.16,0.021,81.9
11,2022-05-04T08:30:00,2200.0,42.79,6.0312,0.028,0.007,0.004,54.0,56.0,56.0,11.9,1504.2,21.4,0.0,-0.3,2192.889,13.16,0.028,76.0
11,2022-05-04T09:00:00,2200.0,42.79,6.0312,0.028,0.003,0.015,53.0,56.0,60.0,11.9,1504.2,25.8,-0.3,0.0,2192.822,13.16,0.028,83.9
11,2022-05-04T09:30:00,2200.0,42.79,6.0312,0.027,0.0,0.006,55.0,57.0,61.0,11.9,1504.2,22.8,-0.4,0.0,2192.815,13.16,0.026,90.0
11,2022-05-04T10:00:00,2200.0,42.79,6.0312,0.026,0.013,0.005,56.0,62.0,62.0,11.9,1504.2,18.3,-0.1,-0.2,2192.84,13.16,0.029,63.4
11,2022-05-04T10:30:00,2200.0,42.79,6.0312,0.036,0.009,0.011,56.0,58.0,59.0,11.9,1504.2,21.9,-0.2,-0.2,2192.785,13.16,0.037,76.0
11,2022-05-04T11:00:00,2200.0,42.79,6.0312,0.029,0.012,0.014,57.0,60.0,57.0,11.9,1504.2,24.3,-0.5,-0.2,2192.757,13.16,0.031,67.5
11,2022-05-04T11:30:00,2200.0,42.79,6.0312,0.038,0.015,0.011,53.0,57.0,59.0,11.9,1504.2,23.6,-0.1,-0.2,2192.754,13.16,0.04,68.5
11,2022-05-04T12:00:00,2200.0,42.79,6.0312,0.029,0.005,0.009,53.0,58.0,60.0,11.9,1504.2,27.7,-0.3,0.0,2192.758,13.16,0.029,80.2
11,2022-05-04T12:30:00,2200.0,42.79,6.0312,0.031,0.008,-0.002,55.0,56.0,58.0,11.9,1504.2,29.4,-0.5,-0.1,2192.72,13.16,0.032,75.5
11,2022-05-04T13:00:00,2200.0,42.79,6.0312,0.031,0.015,0.004,53.0,55.0,60.0,11.9,1504.2,28.1,-0.2,0.1,2192.749,13.16,0.034,64.2
11,2022-05-04T13:30:00,2200.0,42.79,6.0312,0.024,0.018,-0.005,55.0,58.0,57.0,11.9,1504.2,30.4,-0.3,0.0,2192.706,13.16,0.03,53.1
11,2022-05-04T14:00:00,2200.0,42.79,6.0312,0.023,0.005,-0.007,54.0,55.0,58.0,12.0,1504.2,31.0,0.0,-0.2,2192.677,13.16,0.023,77.7
11,2022-05-04T14:30:00,2200.0,42.79,6.0312,0.033,0.012,-0.008,52.0,57.0,57.0,11.9,1504.2,32.0,-0.5,-0.1,2192.693,13.16,0.035,70.0
11,2022-05-04T15:00:00,2200.0,42.79,6.0312,0.018,0.01,0.018,53.0,56.0,59.0,11.9,1504.2,34.1,-0.3,0.1,2192.742,13.16,0.02,60.9
11,2022-05-04T15:30:00,2200.0,42.79,6.0312,0.019,0.002,0.025,50.0,57.0,60.0,11.9,1504.2,33.5,-0.4,-0.2,2192.7,13.16,0.019,84.0
11,2022-05-04T16:00:00,2200.0,42.79,6.0312,0.033,0.012,0.0,54.0,57.0,60.0,11.9,1504.2,34.8,-0.1,-0.1,2192.712,13.16,0.035,70.0
11,2022-05-04T16:30:00,2200.0,42.79,6.0312,0.022,0.002,0.017,54.0,56.0,56.0,11.9,1504.2,33.7,-0.1,-0.2,2192.733,13.16,0.022,84.8
11,2022-05-04T17:00:00,2200.0,42.79,6.0312,0.04,0.006,0.009,53.0,57.0,57.0,11.9,1504.2,36.7,-0.5,-0.2,2192.701,13.16,0.04,81.5
11,2022-05-04T17:30:00,2200.0,42.79,6.0312,0.031,0.014,0.008,53.0,57.0,58.0,11.9,1504.2,37.9,-0.2,0.0,2192.733,13.16,0.034,65.7
11,2022-05-04T18:00:00,2200.0,42.79,6.0312,0.032,0.003,0.01,50.0,54.0,55.0,11.9,1504.2,35.3,0.0,-0.3,2192.737,13.16,0.032,84.6
11,2022-05-04T18:30:00,2200.0,42.79,6.0312,0.024,0.014,0.005,51.0,59.0,54.0,11.9,1504.2,37.8,-0.4,0.1,2192.775,13.16,0.027,59.7
11,2022-05-04T19:00:00,2200.0,42.79,6.0312,0.014,0.009,0.019,53.0,53.0,56.0,11.9,1504.2,36.8,-0.2,0.0,2192.83,13.16,0.016,57.3
11,2022-05-04T19:30:00,2200.0,42.79,6.0312,0.028,0.012,0.002,54.0,55.0,57.0,11.9,1504.2,37.1,-0.4,-0.3,2192.851,13.16,0.03,66.8
11,2022-05-04T20:00:00,2200.0,42.79,6.0312,0.022,0.019,0.009,55.0,58.0,57.0,11.9,1504.2,38.2,0.1,0.1,2192.915,13.16,0.029,49.2
11,2022-05-04T21:00:00,2200.0,42.79,6.0312,0.027,0.018,0.007,56.0,58.0,58.0,11.9,1504.2,40.5,-0.5,0.1,2192.903,13.16,0.032,56.3
